Location: Chuathbaluk
(61.5726°N, 159.2454°W)
Time: 03:29:17
(UTC+00:00)

SR - Pass Details

Date: 02 December 2020
Orbit: 575 x 880 km, 66.7° (Epoch: 23 January)

Event Time Altitude Azimuth Distance (km) Brightness Sun altitude
Rises 03:52:16 0° 176° (S) 2,852 ? -15.3°
Reaches altitude 10° 03:54:59 10° 158° (SSE) 1,993 ? -15.6°
Enters shadow 03:57:59 19° 115° (ESE) 1,550 ? -16.0°
